Regional Weather Roundup
Issued by NWS

Home | Current Version | Previous Version | Text Only | Print | Product List | Glossary Off
Versions: 1 2 3 4 5 6 7 8 9 10 11 12 13 14 15 16 17 18 19 20 21 22 23 24 25 26 27 28 29 30 31 32 33 34 35 36 37 38 39 40 41 42 43 44 45 46 47 48 49 50

000
ASUS43 KDTX 181801
RWRMI
MICHIGAN HOURLY REGIONAL WEATHER ROUNDUP
NATIONAL WEATHER SERVICE DETROIT/PONTIAC MI
200 PM EDT WED OCT 18 2017

NOTE: "FAIR" INDICATES FEW OR NO CLOUDS BELOW 12,000 FEET WITH NO
SIGNIFICANT WEATHER AND/OR OBSTRUCTION TO VISIBILITY.

MIZ047>049-052>055-059>063-066>070-074>076-081>083-181900-
SOUTHEAST LOWER MICHIGAN

CITY           SKY/WX    TMP DP  RH WIND       PRES   REMARKS
ADRIAN         SUNNY     66  42  41 SW18      30.20F
6HR MIN TEMP:  43; 6HR MAX TEMP:  66;

ALMA           SUNNY     68  38  33 SW14G28   30.11F
6HR MIN TEMP:  45; 6HR MAX TEMP:  68;

ANN ARBOR      SUNNY     66  42  41 S15G21    30.18F
BAD AXE        SUNNY     67  36  31 SW21      30.11F
6HR MIN TEMP:  45; 6HR MAX TEMP:  67;

CARO           SUNNY     68  38  34 S14       30.12F
DETROIT CITY   SUNNY     65  43  44 SW15G21   30.19F
6HR MIN TEMP:  48; 6HR MAX TEMP:  66;

DETROIT        SUNNY     67  44  43 S15G22    30.20F
6HR MIN TEMP:  46; 6HR MAX TEMP:  67;

FLINT          SUNNY     67  39  35 S15G24    30.15F
6HR MIN TEMP:  49; 6HR MAX TEMP:  67;

GROSSE ILE     SUNNY     65  47  52 S16       30.20F
6HR MIN TEMP:  49; 6HR MAX TEMP:  65;

HILLSDALE      SUNNY     64  37  36 S12       30.19F
HOWELL         SUNNY     66  39  37 S12G18    30.16F
6HR MIN TEMP:  47; 6HR MAX TEMP:  67;


CITY           SKY/WX    TMP DP  RH WIND       PRES   REMARKS
JACKSON        SUNNY     66  39  37 S15       30.17F
6HR MIN TEMP:  48; 6HR MAX TEMP:  67;

LAMBERTVILLE   SUNNY     70  42  36 SW12      30.20F
6HR MIN TEMP:  45; 6HR MAX TEMP:  70;

LANSING        SUNNY     66  40  38 S16       30.15F
6HR MIN TEMP:  48; 6HR MAX TEMP:  66;

LAPEER         FAIR      66  40  38 SW15      30.15F
6HR MIN TEMP:  41; 6HR MAX TEMP:  66;

MASON          SUNNY     68  40  35 S5        30.16F
MONROE         SUNNY     68  41  38 SW10G23   30.19F
MT. CLEMENS    SUNNY     67  44  44 S12       30.16F
6HR MIN TEMP:  46; 6HR MAX TEMP:  67;

PONTIAC        SUNNY     65  42  43 S13       30.16F
6HR MIN TEMP:  46; 6HR MAX TEMP:  65;

PORT HURON     SUNNY     66  41  39 S16G24    30.18F
TRI CITIES     SUNNY     68  42  38 S18G25    30.11F
6HR MIN TEMP:  48; 6HR MAX TEMP:  68;

MIDLAND        FAIR      68  42  37 S17G25    30.09F
6HR MIN TEMP:  46; 6HR MAX TEMP:  68;

TROY           SUNNY     67  39  36 S9G21     30.19F
SAGINAW HB     SUNNY     66  39  37 S22G28    30.11F
$$
MIZ043>046-050>051-056>058-064>065-071>073-077>080-181900-
SOUTHWEST LOWER MICHIGAN

CITY           SKY/WX    TMP DP  RH WIND       PRES   REMARKS
BATTLE CREEK   SUNNY     66  42  41 MISG      30.16F
6HR MIN TEMP:  46; 6HR MAX TEMP:  66;

BENTON HARBOR  SUNNY     67  42  40 S13       30.13F
6HR MIN TEMP:  48; 6HR MAX TEMP:  67;

BIG RAPIDS     SUNNY     66  43  42 S14G21    30.07F
6HR MIN TEMP:  45; 6HR MAX TEMP:  67;

COLDWATER      SUNNY     66  37  34 S9G21     30.18F
6HR MIN TEMP:  46; 6HR MAX TEMP:  66;

FREMONT        FAIR      67  45  45 SW16G29   30.08F
HOLLAND        SUNNY     68  42  38 SW15G24   30.11F
6HR MIN TEMP:  48; 6HR MAX TEMP:  68;

GRAND RAPIDS   SUNNY     67  43  41 SW13G25   30.11F
6HR MIN TEMP:  47; 6HR MAX TEMP:  67;

IONIA          FAIR      67  40  36 S16       30.12F
6HR MIN TEMP:  48; 6HR MAX TEMP:  67;

KALAMAZOO      SUNNY     66  41  40 S20       30.16F
6HR MIN TEMP:  47; 6HR MAX TEMP:  66;

LUDINGTON      SUNNY     65  47  51 S21G30    30.04S
6HR MIN TEMP:  57; 6HR MAX TEMP:  66;

MARSHALL       SUNNY     66  40  39 S13G18    30.16F
6HR MIN TEMP:  46; 6HR MAX TEMP:  66;

MOUNT PLEASANT SUNNY     69  39  32 SW16G23   30.08F
6HR MIN TEMP:  49; 6HR MAX TEMP:  69;

MUSKEGON       SUNNY     64  50  60 S22G29    30.10F
6HR MIN TEMP:  58; 6HR MAX TEMP:  65;

SOUTH HAVEN    SUNNY     67  40  38 S16G22    30.12F
$$
MIZ016>042-181900-
NORTHERN LOWER MICHIGAN

CITY           SKY/WX    TMP DP  RH WIND       PRES   REMARKS
ALPENA         SUNNY     70  47  43 S12G20    30.01F
6HR MIN TEMP:  49; 6HR MAX TEMP:  70;

BEAVER ISLAND  SUNNY     66  51  57 S17G26    29.94F
6HR MIN TEMP:  58; 6HR MAX TEMP:  66;

BELLAIRE       SUNNY     70  45  40 SW10G20   29.99F
6HR MIN TEMP:  46; 6HR MAX TEMP:  70;

CADILLAC       SUNNY     69  44  40 SW17G25   30.04F
CHARLEVOIX     SUNNY     68  48  48 SW17G29   29.99F
FRANKFORT      SUNNY     67  49  52 S16G28    30.00F
GAYLORD        SUNNY     68  42  38 SW18G26   30.00F
6HR MIN TEMP:  48; 6HR MAX TEMP:  68;

GRAYLING       SUNNY     67  44  42 S15       30.03F
6HR MIN TEMP:  48; 6HR MAX TEMP:  67;

HARBOR SPRINGS SUNNY     68  46  44 SW13G20   29.97F
HOUGHTON LAKE  SUNNY     67  44  43 SW16G25   30.05F
6HR MIN TEMP:  50; 6HR MAX TEMP:  67;

MANISTEE       SUNNY     69  45  41 S14G24    30.01F
OSCODA         SUNNY     66  44  44 SW16G29   30.05F
6HR MIN TEMP:  48; 6HR MAX TEMP:  67;

PELLSTON       SUNNY     70  46  42 SW15G25   29.96F
6HR MIN TEMP:  51; 6HR MAX TEMP:  70;

ROGERS CITY    SUNNY     71  46  40 SW12G22   29.99F
TRAVERSE CITY  SUNNY     70  47  43 S12G26    29.97F
6HR MIN TEMP:  56; 6HR MAX TEMP:  70;

$$
MIZ007>008-015-181900-
EASTERN UPPER MICHIGAN

CITY           SKY/WX    TMP DP  RH WIND       PRES   REMARKS
KINROSS        SUNNY     68  48  48 SW13G22   29.94F
6HR MIN TEMP:  48; 6HR MAX TEMP:  68;

MACKINAC ISLAN SUNNY     68  44  41 SW14G23   29.95F
6HR MIN TEMP:  55; 6HR MAX TEMP:  68;

NEWBERRY       SUNNY     64  51  63 S30G41    29.89F
6HR MIN TEMP:  52; 6HR MAX TEMP:  64;

S. S. MARIE    SUNNY     68  50  52 SW13      29.92F
6HR MIN TEMP:  46; 6HR MAX TEMP:  69;

MUNISING         N/A     68  50  52 S20G32    29.78F
6HR MIN TEMP:  50; 6HR MAX TEMP:  68;

$$
MIZ004>006-011>014-085-181900-
CENTRAL UPPER MICHIGAN

CITY           SKY/WX    TMP DP  RH WIND       PRES   REMARKS
MANISTIQUE     SUNNY     62  52  70 S14G22    29.90F
6HR MIN TEMP:  55; 6HR MAX TEMP:  62;

ESCANABA       SUNNY     62  50  64 S18G26    29.87F
6HR MIN TEMP:  50; 6HR MAX TEMP:  62;

MENOMINEE      SUNNY     67  48  50 SW21G28   29.89F
6HR MIN TEMP:  52; 6HR MAX TEMP:  67;

SAWYER-GWINN   SUNNY     66  46  48 S25G32    29.80F
$$
MIZ001>003-009>011-084-181900-
WESTERN UPPER MICHIGAN

CITY           SKY/WX    TMP DP  RH WIND       PRES   REMARKS
IRON MOUNTAIN  SUNNY     69  45  41 S20G25    29.82F
6HR MIN TEMP:  43; 6HR MAX TEMP:  70;

HOUGHTON       SUNNY     73  44  35 S17G24    29.66F
6HR MIN TEMP:  50; 6HR MAX TEMP:  73;

COPPER HARBOR    N/A     67  47  48 SW14G25   29.65F
6HR MIN TEMP:  54; 6HR MAX TEMP:  67;

IRONWOOD       MOSUNNY   69  45  41 SW20G29   29.71F
6HR MIN TEMP:  52; 6HR MAX TEMP:  69;

$$

ABBREVIATIONS USED IN REMARKS
   TC - TEMPERATURE IN CELSIUS
  WCI - WIND CHILL INDEX
   HX - HEAT INDEX
  VSB - VISIBILITY





USA.gov is the U.S. government's official web portal to all federal, state and local government web resources and services.